Regional Weather Roundup
Issued by NWS Albany, NY

Home | Current Version | Previous Version | Text Only | Print | Product List | Glossary On
Versions: 1 2 3 4 5 6 7 8 9 10 11 12 13 14 15 16 17 18 19 20 21 22 23 24 25 26 27 28 29 30 31 32 33 34 35 36 37 38 39 40 41 42 43 44 45 46 47 48 49 50
000
ASUS41 KALY 231710
RWRALY

NEW YORK STATE HOURLY WEATHER ROUNDUP
NATIONAL WEATHER SERVICE ALBANY NY
100 PM EDT WED AUG 23 2017

NOTE: "FAIR" INDICATES FEW OR NO CLOUDS BELOW 12,000 FEET WITH NO
SIGNIFICANT WEATHER AND/OR NO OBSTRUCTIONS TO VISIBILITY.

NYZ032-033-038>043-046>054-057>066-NYZ062>081-082-084-231800-
EAST


CITY           SKY/WX    TMP DP  RH WIND       PRES   REMARKS
ALBANY         PTSUNNY   76  53  44 W14G22    29.83S
GLENS FALLS    PTSUNNY   73  52  47 NW10      29.79F
POUGHKEEPSIE   MOSUNNY   77  52  41 W9G17     29.83S
NEWBURGH       MOSUNNY   75  57  53 N12       29.87S
MONTGOMERY     MOSUNNY   77  54  44 NW12      29.85S
WHITE PLAINS   MOSUNNY   77  52  41 NW12      29.84S
ISLIP          PTSUNNY   82  63  52 NW8       29.81F
NEW YORK CITY  PTSUNNY   79  55  43 NW13G20   29.83S
CENTRAL PARK   MOSUNNY   79  53  40 MISG      29.87S
$$

NYZ005>009-017-018-044>046-055-056-231800-
CENTRAL


CITY           SKY/WX    TMP DP  RH WIND       PRES   REMARKS
FULTON         MOSUNNY   69  55  60 W13G22    29.86S
SYRACUSE       MOSUNNY   71  54  54 W13G21    29.85F
ROME           PTSUNNY   69  54  58 W16G22    29.85R
ELMIRA         PTSUNNY   74  40  29 W9G17     29.89S
BINGHAMTON     PTSUNNY   67  51  56 NW7G17    29.90S
MONTICELLO     MOSUNNY   71  54  54 NW6       29.91S
$$

NYZ026>034-041>043-087-231800-
NORTH


CITY           SKY/WX    TMP DP  RH WIND       PRES   REMARKS
WATERTOWN      SUNNY     70  58  65 SW15G22   29.82S
FORT DRUM      NOT AVBL
OGDENSBURG     PTSUNNY   73  55  53 SW8G17    29.78S
MASSENA        MOSUNNY   68  53  58 W17G25    29.77S
SARANAC LAKE   PTSUNNY   64  50  60 SW9G25    29.80S
PLATTSBURGH    MOSUNNY   76  51  41 VRB7G18   29.75S
$$

NYZ001>004-010>016-019>021-085-231800-
WEST


CITY           SKY/WX    TMP DP  RH WIND       PRES   REMARKS
NIAGARA FALLS  PTSUNNY   75  52  44 SW15G24   29.87S
BUFFALO        MOSUNNY   71  53  52 W16G25    29.88S
DUNKIRK        MOSUNNY   72  55  55 W16G23    29.91S
JAMESTOWN      MOSUNNY   67  50  54 W13G18    29.94F
WELLSVILLE     PTSUNNY   66  51  58 W8        29.95F
ROCHESTER      MOSUNNY   73  51  46 W7G23     29.87F
PENN YAN       MOSUNNY   72  47  40 W6        29.90S
$$

             KEY
       WCI = WIND CHILL INDEX
       VSB = VISIBILITY
       HX  = HEAT INDEX
$$



USA.gov is the U.S. government's official web portal to all federal, state and local government web resources and services.